,,,PA_Meas_PMT16A,,PR_Meas_QMR101_102,,RH_Meas_QMH101,,SR_Meas_QMS101,,TA_Meas_QMH101,,GenWind,,GenWind,
date,time,status,PA,status,PR,status,RH,status,SR,status,TA,status,DirAvg,status,SpdAvg,
2011-05-01, 00:00:04,VALID,1002.72,VALID,0,INVALID,163.784,VALID,0,VALID,23.7425,VALID,360,VALID,0.891016,
2011-05-01, 00:01:04,VALID,1002.68,VALID,0,INVALID,163.769,VALID,0,VALID,23.7212,VALID,360,VALID,0.491797,
2011-05-01, 00:02:04,VALID,1002.69,VALID,0,INVALID,163.754,VALID,0,VALID,23.723,VALID,360,VALID,0.727344,
2011-05-01, 00:03:04,VALID,1002.65,VALID,0,INVALID,163.762,VALID,0,VALID,23.723,VALID,360,VALID,0.669922,
2011-05-01, 00:04:04,VALID,1002.68,VALID,0,INVALID,163.777,VALID,0,VALID,23.7035,VALID,360,VALID,0.56875,
2011-05-01, 00:05:04,VALID,1002.66,VALID,0,INVALID,163.746,VALID,0,VALID,23.6841,VALID,360,VALID,0.712109,
2011-05-01, 00:06:04,VALID,1002.68,VALID,0,INVALID,163.792,VALID,0,VALID,23.6841,VALID,360,VALID,0.428125,
2011-05-01, 00:07:04,VALID,1002.68,VALID,0,INVALID,163.777,VALID,0,VALID,23.6841,VALID,360,VALID,0.632422,
2011-05-01, 00:08:04,VALID,1002.69,VALID,0,INVALID,163.777,VALID,0,VALID,23.7053,VALID,360,VALID,0.600781,
2011-05-01, 00:09:04,VALID,1002.7,VALID,0,INVALID,163.762,VALID,0,VALID,23.6841,VALID,360,VALID,0.591016,
2011-05-01, 00:10:04,VALID,1002.72,VALID,0,INVALID,163.754,VALID,0,VALID,23.6841,VALID,360,VALID,0.414453,
2011-05-01, 00:11:04,VALID,1002.71,VALID,0,INVALID,163.754,VALID,0,VALID,23.6841,VALID,360,VALID,0.552344,
2011-05-01, 00:12:04,VALID,1002.73,VALID,0,INVALID,163.754,VALID,0,VALID,23.6628,VALID,360,VALID,0.507813,
2011-05-01, 00:13:04,VALID,1002.74,VALID,0,INVALID,163.769,VALID,0,VALID,23.6628,VALID,360,VALID,0.475,
2011-05-01, 00:14:04,VALID,1002.75,VALID,0,INVALID,163.777,VALID,0,VALID,23.6841,VALID,360,VALID,0.301953,
2011-05-01, 00:15:04,VALID,1002.74,VALID,0,INVALID,163.777,VALID,0,VALID,23.7035,VALID,360,VALID,0.389844,
2011-05-01, 00:16:04,VALID,1002.7,VALID,0,INVALID,163.762,VALID,0,VALID,23.6628,VALID,360,VALID,0.359766,
2011-05-01, 00:17:04,VALID,1002.7,VALID,0,INVALID,163.777,VALID,0,VALID,23.6434,VALID,360,VALID,0.400391,
2011-05-01, 00:18:04,VALID,1002.7,VALID,0,INVALID,163.762,VALID,0,VALID,23.6434,VALID,360,VALID,0.493359,
2011-05-01, 00:19:04,VALID,1002.69,VALID,0,INVALID,163.777,VALID,0,VALID,23.6646,VALID,360,VALID,0.513672,
2011-05-01, 00:20:04,VALID,1002.71,VALID,0,INVALID,163.762,VALID,0,VALID,23.6434,VALID,360,VALID,0.402344,
2011-05-01, 00:21:04,VALID,1002.73,VALID,0,INVALID,163.769,VALID,0,VALID,23.6452,VALID,360,VALID,0.538672,
2011-05-01, 00:22:04,VALID,1002.75,VALID,0,INVALID,163.762,VALID,0,VALID,23.6452,VALID,360,VALID,0.68125,
2011-05-01, 00:23:04,VALID,1002.75,VALID,0,INVALID,163.746,VALID,0,VALID,23.6239,VALID,360,VALID,0.370313,
2011-05-01, 00:24:04,VALID,1002.75,VALID,0,INVALID,163.784,VALID,0,VALID,23.6452,VALID,360,VALID,0.324219,
2011-05-01, 00:25:04,VALID,1002.76,VALID,0,INVALID,163.762,VALID,0,VALID,23.6044,VALID,360,VALID,0.366406,
2011-05-01, 00:26:04,VALID,1002.78,VALID,0,INVALID,163.754,VALID,0,VALID,23.6452,VALID,360,VALID,0.206641,
2011-05-01, 00:27:04,VALID,1002.77,VALID,0,INVALID,163.784,VALID,0,VALID,23.6452,VALID,360,VALID,0.360156,
2011-05-01, 00:28:04,VALID,1002.78,VALID,0,INVALID,163.769,VALID,0,VALID,23.6452,VALID,360,VALID,0.258594,
2011-05-01, 00:29:04,VALID,1002.78,VALID,0,INVALID,163.769,VALID,0,VALID,23.6239,VALID,360,VALID,0.454688,
2011-05-01, 00:30:04,VALID,1002.77,VALID,0,INVALID,163.777,VALID,0.100563,VALID,23.6221,VALID,360,VALID,0.426172,
2011-05-01, 00:31:04,VALID,1002.78,VALID,0,INVALID,163.8,VALID,0.100563,VALID,23.6239,VALID,360,VALID,0.246094,
2011-05-01, 00:32:04,VALID,1002.78,VALID,0,INVALID,163.784,VALID,0,VALID,23.6026,VALID,360,VALID,0.296875,
2011-05-01, 00:33:04,VALID,1002.81,VALID,0,INVALID,163.754,VALID,0,VALID,23.6239,VALID,360,VALID,0.247266,
2011-05-01, 00:34:04,VALID,1002.8,VALID,0,INVALID,163.792,VALID,0,VALID,23.6239,VALID,360,VALID,0.364062,
2011-05-01, 00:35:04,VALID,1002.79,VALID,0,INVALID,163.769,VALID,0.100563,VALID,23.6044,VALID,360,VALID,0.304688,
2011-05-01, 00:36:04,VALID,1002.77,VALID,0,INVALID,163.754,VALID,0.100563,VALID,23.585,VALID,360,VALID,0.283984,
2011-05-01, 00:37:04,VALID,1002.73,VALID,0,INVALID,163.777,VALID,0.100563,VALID,23.585,VALID,360,VALID,0.320703,
2011-05-01, 00:38:04,VALID,1002.73,VALID,0,INVALID,163.784,VALID,0.100563,VALID,23.5637,VALID,360,VALID,0.336328,
2011-05-01, 00:39:04,VALID,1002.69,VALID,0,INVALID,163.8,VALID,0.100563,VALID,23.5443,VALID,360,VALID,0.419141,
2011-05-01, 00:40:04,VALID,1002.69,VALID,0,INVALID,163.777,VALID,0.100563,VALID,23.546,VALID,360,VALID,0.405859,
2011-05-01, 00:41:04,VALID,1002.65,VALID,0,INVALID,163.777,VALID,0.100563,VALID,23.5443,VALID,360,VALID,0.603516,
2011-05-01, 00:42:04,VALID,1002.63,VALID,0,INVALID,163.762,VALID,0.100563,VALID,23.546,VALID,360,VALID,0.562109,
2011-05-01, 00:43:04,VALID,1002.62,VALID,0,INVALID,163.777,VALID,0.100563,VALID,23.5655,VALID,360,VALID,0.731641,
2011-05-01, 00:44:04,VALID,1002.61,VALID,0,INVALID,163.762,VALID,0.100563,VALID,23.5673,VALID,360,VALID,0.626953,
2011-05-01, 00:45:04,VALID,1002.6,VALID,0,INVALID,163.815,VALID,0.100563,VALID,23.5443,VALID,360,VALID,0.635156,
2011-05-01, 00:46:04,VALID,1002.57,VALID,0,INVALID,163.792,VALID,0.100563,VALID,23.5443,VALID,360,VALID,0.707031,
2011-05-01, 00:47:04,VALID,1002.55,VALID,0,INVALID,163.8,VALID,0.100563,VALID,23.5655,VALID,360,VALID,0.650391,
2011-05-01, 00:48:04,VALID,1002.53,VALID,0,INVALID,163.815,VALID,0.100563,VALID,23.5655,VALID,360,VALID,0.5625,
2011-05-01, 00:49:04,VALID,1002.5,VALID,0,INVALID,163.762,VALID,0.100563,VALID,23.5248,VALID,360,VALID,0.719141,
2011-05-01, 00:50:04,VALID,1002.48,VALID,0,INVALID,163.807,VALID,0.100563,VALID,23.5248,VALID,1,VALID,0.5375,
2011-05-01, 00:51:04,VALID,1002.48,VALID,0,INVALID,163.792,VALID,0.100563,VALID,23.5248,VALID,1,VALID,0.696484,
2011-05-01, 00:52:04,VALID,1002.45,VALID,0,INVALID,163.784,VALID,0.100563,VALID,23.5248,VALID,357,VALID,0.621484,
2011-05-01, 00:53:04,VALID,1002.43,VALID,0,INVALID,163.784,VALID,0.100563,VALID,23.5248,VALID,345,VALID,0.662109,
2011-05-01, 00:54:04,VALID,1002.4,VALID,0,INVALID,163.792,VALID,0.100563,VALID,23.5443,VALID,345,VALID,0.526172,
2011-05-01, 00:55:04,VALID,1002.42,VALID,0,INVALID,163.777,VALID,0.100563,VALID,23.5443,VALID,345,VALID,0.611328,
2011-05-01, 00:56:04,VALID,1002.42,VALID,0,INVALID,163.762,VALID,0.100563,VALID,23.5443,VALID,345,VALID,0.539063,
2011-05-01, 00:57:04,VALID,1002.43,VALID,0,INVALID,163.777,VALID,0.100563,VALID,23.585,VALID,345,VALID,0.484766,
2011-05-01, 00:58:04,VALID,1002.43,VALID,0,INVALID,163.777,VALID,0.100563,VALID,23.5832,VALID,345,VALID,0.463281,
2011-05-01, 00:59:04,VALID,1002.44,VALID,0,INVALID,163.777,VALID,0,VALID,23.6062,VALID,344,VALID,0.371094,
2011-05-01, 01:00:04,VALID,1002.46,VALID,0,INVALID,163.754,VALID,0.100563,VALID,23.585,VALID,345,VALID,0.474609,
2011-05-01, 01:01:04,VALID,1002.45,VALID,0,INVALID,163.784,VALID,0,VALID,23.6044,VALID,345,VALID,0.430078,
2011-05-01, 01:02:04,VALID,1002.46,VALID,0,INVALID,163.769,VALID,0,VALID,23.6044,VALID,345,VALID,0.39375,
2011-05-01, 01:03:04,VALID,1002.46,VALID,0,INVALID,163.762,VALID,0,VALID,23.6239,VALID,345,VALID,0.404687,
2011-05-01, 01:04:04,VALID,1002.47,VALID,0,INVALID,163.784,VALID,0,VALID,23.6239,VALID,345,VALID,0.367188,
2011-05-01, 01:05:04,VALID,1002.49,VALID,0,INVALID,163.777,VALID,0,VALID,23.6257,VALID,345,VALID,0.325391,
2011-05-01, 01:06:04,VALID,1002.49,VALID,0,INVALID,163.777,VALID,0,VALID,23.6044,VALID,345,VALID,0.249219,
2011-05-01, 01:07:04,VALID,1002.51,VALID,0,INVALID,163.769,VALID,0,VALID,23.6239,VALID,345,VALID,0.328516,
2011-05-01, 01:08:04,VALID,1002.52,VALID,0,INVALID,163.777,VALID,0,VALID,23.6239,VALID,345,VALID,0.346484,
2011-05-01, 01:09:04,VALID,1002.5,VALID,0,INVALID,163.784,VALID,0,VALID,23.6239,VALID,345,VALID,0.225781,
2011-05-01, 01:10:04,VALID,1002.52,VALID,0,INVALID,163.754,VALID,0,VALID,23.6239,VALID,345,VALID,0.192188,
2011-05-01, 01:11:04,VALID,1002.5,VALID,0,INVALID,163.792,VALID,0,VALID,23.6434,VALID,345,VALID,0.348047,
2011-05-01, 01:12:04,VALID,1002.5,VALID,0,INVALID,163.777,VALID,0,VALID,23.6026,VALID,345,VALID,0.133984,
2011-05-01, 01:13:04,VALID,1002.5,VALID,0,INVALID,163.784,VALID,0,VALID,23.6257,VALID,345,VALID,0.378125,
2011-05-01, 01:14:04,VALID,1002.53,VALID,0,INVALID,163.777,VALID,0,VALID,23.6062,VALID,345,VALID,0.405859,
2011-05-01, 01:15:04,VALID,1002.5,VALID,0,INVALID,163.777,VALID,0,VALID,23.5655,VALID,345,VALID,0.440625,
2011-05-01, 01:16:04,VALID,1002.5,VALID,0,INVALID,163.769,VALID,0,VALID,23.5266,VALID,345,VALID,0.464844,
2011-05-01, 01:17:04,VALID,1002.48,VALID,0,INVALID,163.769,VALID,0,VALID,23.5266,VALID,345,VALID,0.0890625,
2011-05-01, 01:18:04,VALID,1002.46,VALID,0,INVALID,163.815,VALID,0,VALID,23.5284,VALID,345,VALID,0,
2011-05-01, 01:19:04,VALID,1002.44,VALID,0,INVALID,163.792,VALID,0,VALID,23.5071,VALID,345,VALID,0,
2011-05-01, 01:20:04,VALID,1002.39,VALID,0,INVALID,163.784,VALID,0,VALID,23.5089,VALID,345,VALID,0,
2011-05-01, 01:21:04,VALID,1002.38,VALID,0,INVALID,163.8,VALID,0,VALID,23.5089,VALID,345,VALID,0,
2011-05-01, 01:22:04,VALID,1002.32,VALID,0,INVALID,163.769,VALID,0,VALID,23.4894,VALID,345,VALID,0,
2011-05-01, 01:23:04,VALID,1002.3,VALID,0,INVALID,163.777,VALID,0,VALID,23.4877,VALID,345,VALID,0,
2011-05-01, 01:24:04,VALID,1002.28,VALID,0,INVALID,163.8,VALID,0,VALID,23.4487,VALID,345,VALID,0.5,
2011-05-01, 01:25:04,VALID,1002.23,VALID,0,INVALID,163.777,VALID,0,VALID,23.47,VALID,350,VALID,0.600391,
2011-05-01, 01:26:04,VALID,1002.21,VALID,0,INVALID,163.769,VALID,0,VALID,23.4894,VALID,350,VALID,0.636719,
2011-05-01, 01:27:04,VALID,1002.21,VALID,0,INVALID,163.784,VALID,0,VALID,23.4487,VALID,355,VALID,0.646484,
2011-05-01, 01:28:04,VALID,1002.19,VALID,0,INVALID,163.784,VALID,0,VALID,23.4682,VALID,355,VALID,0.757422,
2011-05-01, 01:29:04,VALID,1002.18,VALID,0,INVALID,163.792,VALID,0,VALID,23.4682,VALID,355,VALID,0.641016,
2011-05-01, 01:30:04,VALID,1002.16,VALID,0,INVALID,163.792,VALID,0,VALID,23.4487,VALID,355,VALID,0.638281,
2011-05-01, 01:31:04,VALID,1002.16,VALID,0,INVALID,163.823,VALID,0,VALID,23.4505,VALID,355,VALID,0.636719,
2011-05-01, 01:32:04,VALID,1002.14,VALID,0,INVALID,163.792,VALID,0,VALID,23.4505,VALID,355,VALID,0.570313,
2011-05-01, 01:33:04,VALID,1002.13,VALID,0,INVALID,163.769,VALID,0,VALID,23.4487,VALID,355,VALID,0.60625,
2011-05-01, 01:34:04,VALID,1002.15,VALID,0,INVALID,163.784,VALID,0,VALID,23.4293,VALID,355,VALID,0.625,
2011-05-01, 01:35:04,VALID,1002.14,VALID,0,INVALID,163.8,VALID,0,VALID,23.47,VALID,354,VALID,0.689062,
2011-05-01, 01:36:04,VALID,1002.14,VALID,0,INVALID,163.769,VALID,0,VALID,23.47,VALID,354,VALID,0.615234,
2011-05-01, 01:37:04,VALID,1002.11,VALID,0,INVALID,163.792,VALID,0,VALID,23.47,VALID,354,VALID,0.514063,
2011-05-01, 01:38:04,VALID,1002.09,VALID,0,INVALID,163.815,VALID,0,VALID,23.4894,VALID,354,VALID,0.429297,
2011-05-01, 01:39:04,VALID,1002.09,VALID,0,INVALID,163.784,VALID,0,VALID,23.4682,VALID,354,VALID,0.401172,
2011-05-01, 01:40:04,VALID,1002.12,VALID,0,INVALID,163.784,VALID,0,VALID,23.4894,VALID,354,VALID,0.408984,
2011-05-01, 01:41:04,VALID,1002.12,VALID,0,INVALID,163.777,VALID,0,VALID,23.4894,VALID,354,VALID,0.416406,
2011-05-01, 01:42:04,VALID,1002.12,VALID,0,INVALID,163.792,VALID,0,VALID,23.4877,VALID,354,VALID,0.429297,
2011-05-01, 01:43:04,VALID,1002.12,VALID,0,INVALID,163.769,VALID,0,VALID,23.4877,VALID,354,VALID,0.602734,
2011-05-01, 01:44:04,VALID,1002.12,VALID,0,INVALID,163.792,VALID,0,VALID,23.4877,VALID,354,VALID,0.530469,
2011-05-01, 01:45:04,VALID,1002.13,VALID,0,INVALID,163.8,VALID,0,VALID,23.5089,VALID,354,VALID,0.441016,
2011-05-01, 01:46:04,VALID,1002.12,VALID,0,INVALID,163.784,VALID,0,VALID,23.4877,VALID,354,VALID,0.416406,
2011-05-01, 01:47:04,VALID,1002.12,VALID,0,INVALID,163.762,VALID,0,VALID,23.5284,VALID,354,VALID,0.241406,
2011-05-01, 01:48:04,VALID,1002.12,VALID,0,INVALID,163.762,VALID,0,VALID,23.5071,VALID,354,VALID,0.382031,
2011-05-01, 01:49:04,VALID,1002.1,VALID,0,INVALID,163.792,VALID,0,VALID,23.5284,VALID,354,VALID,0.543359,
2011-05-01, 01:50:04,VALID,1002.1,VALID,0,INVALID,163.784,VALID,0,VALID,23.4877,VALID,354,VALID,0.479688,
2011-05-01, 01:51:04,VALID,1002.1,VALID,0,INVALID,163.8,VALID,0,VALID,23.4877,VALID,354,VALID,0.525,
2011-05-01, 01:52:04,VALID,1002.11,VALID,0,INVALID,163.8,VALID,0,VALID,23.4877,VALID,354,VALID,0.566016,
2011-05-01, 01:53:04,VALID,1002.11,VALID,0,INVALID,163.777,VALID,0,VALID,23.4877,VALID,354,VALID,0.563672,
2011-05-01, 01:54:04,VALID,1002.14,VALID,0,INVALID,163.792,VALID,0,VALID,23.5089,VALID,354,VALID,0.579297,
2011-05-01, 01:55:04,VALID,1002.15,VALID,0,INVALID,163.777,VALID,0,VALID,23.4877,VALID,355,VALID,0.68125,
2011-05-01, 01:56:04,VALID,1002.15,VALID,0,INVALID,163.784,VALID,0,VALID,23.4682,VALID,355,VALID,0.720703,
2011-05-01, 01:57:04,VALID,1002.17,VALID,0,INVALID,163.784,VALID,0,VALID,23.4877,VALID,355,VALID,0.675,
2011-05-01, 01:58:04,VALID,1002.18,VALID,0,INVALID,163.784,VALID,0,VALID,23.5089,VALID,355,VALID,0.589063,
2011-05-01, 01:59:04,VALID,1002.18,VALID,0,INVALID,163.8,VALID,0,VALID,23.4682,VALID,355,VALID,0.648047,
2011-05-01, 02:00:04,VALID,1002.15,VALID,0,INVALID,163.769,VALID,0,VALID,23.4877,VALID,355,VALID,0.647266,
2011-05-01, 02:01:04,VALID,1002.16,VALID,0,INVALID,163.792,VALID,0,VALID,23.4877,VALID,355,VALID,0.652734,
2011-05-01, 02:02:04,VALID,1002.15,VALID,0,INVALID,163.784,VALID,0,VALID,23.4877,VALID,354,VALID,0.503906,
2011-05-01, 02:03:04,VALID,1002.16,VALID,0,INVALID,163.807,VALID,0,VALID,23.4682,VALID,354,VALID,0.324609,
2011-05-01, 02:04:04,VALID,1002.15,VALID,0,INVALID,163.769,VALID,0,VALID,23.5089,VALID,354,VALID,0.510156,
2011-05-01, 02:05:04,VALID,1002.15,VALID,0,INVALID,163.792,VALID,0,VALID,23.4877,VALID,354,VALID,0.421484,
2011-05-01, 02:06:04,VALID,1002.14,VALID,0,INVALID,163.784,VALID,0,VALID,23.5089,VALID,354,VALID,0.259766,
2011-05-01, 02:07:04,VALID,1002.12,VALID,0,INVALID,163.792,VALID,0,VALID,23.5089,VALID,355,VALID,0.317578,
2011-05-01, 02:08:04,VALID,1002.08,VALID,0,INVALID,163.784,VALID,0,VALID,23.5071,VALID,354,VALID,0.372656,
2011-05-01, 02:09:04,VALID,1002.09,VALID,0,INVALID,163.784,VALID,0,VALID,23.5089,VALID,354,VALID,0.366406,
2011-05-01, 02:10:04,VALID,1002.05,VALID,0,INVALID,163.784,VALID,0,VALID,23.4894,VALID,354,VALID,0.0351563,
2011-05-01, 02:11:04,VALID,1002.03,VALID,0,INVALID,163.769,VALID,0,VALID,23.5089,VALID,355,VALID,0.461328,
2011-05-01, 02:12:04,VALID,1002.03,VALID,0,INVALID,163.792,VALID,0,VALID,23.4487,VALID,355,VALID,0.466797,
2011-05-01, 02:13:04,VALID,1001.99,VALID,0,INVALID,163.807,VALID,0,VALID,23.47,VALID,355,VALID,0.569531,
2011-05-01, 02:14:04,VALID,1001.97,VALID,0,INVALID,163.807,VALID,0,VALID,23.4505,VALID,355,VALID,0.548047,
2011-05-01, 02:15:04,VALID,1001.91,VALID,0,INVALID,163.8,VALID,0,VALID,23.4293,VALID,355,VALID,0.531641,
2011-05-01, 02:16:04,VALID,1001.88,VALID,0,INVALID,163.784,VALID,0,VALID,23.4505,VALID,355,VALID,0.595312,
2011-05-01, 02:17:04,VALID,1001.87,VALID,0,INVALID,163.777,VALID,0,VALID,23.4505,VALID,354,VALID,0.494141,
2011-05-01, 02:18:04,VALID,1001.83,VALID,0,INVALID,163.792,VALID,0,VALID,23.4311,VALID,355,VALID,0.537891,
2011-05-01, 02:19:04,VALID,1001.81,VALID,0,INVALID,163.8,VALID,0,VALID,23.4116,VALID,355,VALID,0.690234,
2011-05-01, 02:20:04,VALID,1001.78,VALID,0,INVALID,163.792,VALID,0,VALID,23.4098,VALID,355,VALID,0.453516,
2011-05-01, 02:21:04,VALID,1001.77,VALID,0,INVALID,163.792,VALID,0,VALID,23.3709,VALID,355,VALID,0.407422,
2011-05-01, 02:22:04,VALID,1001.75,VALID,0,INVALID,163.823,VALID,0,VALID,23.3921,VALID,355,VALID,0.258594,
2011-05-01, 02:23:04,VALID,1001.76,VALID,0,INVALID,163.769,VALID,0,VALID,23.3939,VALID,355,VALID,0.221484,
2011-05-01, 02:24:04,VALID,1001.74,VALID,0,INVALID,163.769,VALID,0,VALID,23.3727,VALID,355,VALID,0.312891,
2011-05-01, 02:25:04,VALID,1001.73,VALID,0,INVALID,163.8,VALID,0,VALID,23.3727,VALID,355,VALID,0.448438,
2011-05-01, 02:26:04,VALID,1001.72,VALID,0,INVALID,163.807,VALID,0,VALID,23.3727,VALID,355,VALID,0.582031,
2011-05-01, 02:27:04,VALID,1001.74,VALID,0,INVALID,163.777,VALID,0,VALID,23.3514,VALID,355,VALID,0.603516,
2011-05-01, 02:28:04,VALID,1001.72,VALID,0,INVALID,163.792,VALID,0,VALID,23.3921,VALID,355,VALID,0.512891,
2011-05-01, 02:29:04,VALID,1001.69,VALID,0,INVALID,163.792,VALID,0.100563,VALID,23.3709,VALID,355,VALID,0.344531,
2011-05-01, 02:30:04,VALID,1001.66,VALID,0,INVALID,163.807,VALID,0.100563,VALID,23.3691,VALID,355,VALID,0.289844,
2011-05-01, 02:31:04,VALID,1001.65,VALID,0,INVALID,163.769,VALID,0.100563,VALID,23.3904,VALID,355,VALID,0.308984,
2011-05-01, 02:32:04,VALID,1001.63,VALID,0,INVALID,163.8,VALID,0.100563,VALID,23.3479,VALID,355,VALID,0.0875,
2011-05-01, 02:33:04,VALID,1001.62,VALID,0,INVALID,163.784,VALID,0.100563,VALID,23.3691,VALID,355,VALID,0.407813,
2011-05-01, 02:34:04,VALID,1001.59,VALID,0,INVALID,163.792,VALID,0.100563,VALID,23.3904,VALID,355,VALID,0.467969,
2011-05-01, 02:35:04,VALID,1001.58,VALID,0,INVALID,163.784,VALID,0.100563,VALID,23.3904,VALID,355,VALID,0.496875,
2011-05-01, 02:36:04,VALID,1001.57,VALID,0,INVALID,163.792,VALID,0.100563,VALID,23.3886,VALID,355,VALID,0.478516,
2011-05-01, 02:37:04,VALID,1001.55,VALID,0,INVALID,163.784,VALID,0.100563,VALID,23.3691,VALID,355,VALID,0.192188,
2011-05-01, 02:38:04,VALID,1001.54,VALID,0,INVALID,163.777,VALID,0.100563,VALID,23.3691,VALID,355,VALID,0.179297,
2011-05-01, 02:39:04,VALID,1001.51,VALID,0,INVALID,163.8,VALID,0,VALID,23.3904,VALID,355,VALID,0.192578,
2011-05-01, 02:40:04,VALID,1001.5,VALID,0,INVALID,163.8,VALID,0.100563,VALID,23.3691,VALID,355,VALID,0,
2011-05-01, 02:41:04,VALID,1001.48,VALID,0,INVALID,163.777,VALID,0.100563,VALID,23.3904,VALID,355,VALID,0,
2011-05-01, 02:42:04,VALID,1001.49,VALID,0,INVALID,163.792,VALID,0.100563,VALID,23.3691,VALID,355,VALID,0,
2011-05-01, 02:43:04,VALID,1001.51,VALID,0,INVALID,163.784,VALID,0.100563,VALID,23.3904,VALID,355,VALID,0.293359,
2011-05-01, 02:44:04,VALID,1001.51,VALID,0,INVALID,163.792,VALID,0,VALID,23.3709,VALID,355,VALID,0.418359,
2011-05-01, 02:45:04,VALID,1001.48,VALID,0,INVALID,163.807,VALID,0,VALID,23.3904,VALID,355,VALID,0.427734,
2011-05-01, 02:46:04,VALID,1001.5,VALID,0,INVALID,163.792,VALID,0,VALID,23.3904,VALID,355,VALID,0.256641,
2011-05-01, 02:47:04,VALID,1001.51,VALID,0,INVALID,163.792,VALID,0,VALID,23.3904,VALID,355,VALID,0.451953,
2011-05-01, 02:48:04,VALID,1001.52,VALID,0,INVALID,163.823,VALID,0,VALID,23.3709,VALID,1,VALID,0.475,
2011-05-01, 02:49:04,VALID,1001.52,VALID,0,INVALID,163.777,VALID,0,VALID,23.3514,VALID,1,VALID,0.515234,
2011-05-01, 02:50:04,VALID,1001.54,VALID,0,INVALID,163.807,VALID,0,VALID,23.332,VALID,1,VALID,0.538281,
2011-05-01, 02:51:04,VALID,1001.55,VALID,0,INVALID,163.807,VALID,0,VALID,23.2931,VALID,1,VALID,0.398438,
2011-05-01, 02:52:04,VALID,1001.53,VALID,0,INVALID,163.777,VALID,0,VALID,23.3337,VALID,1,VALID,0.478125,
2011-05-01, 02:53:04,VALID,1001.55,VALID,0,INVALID,163.815,VALID,0,VALID,23.3337,VALID,1,VALID,0.53125,
2011-05-01, 02:54:04,VALID,1001.54,VALID,0,INVALID,163.815,VALID,0,VALID,23.332,VALID,1,VALID,0.548437,
2011-05-01, 02:55:04,VALID,1001.55,VALID,0,INVALID,163.815,VALID,0,VALID,23.3727,VALID,1,VALID,0.578906,
2011-05-01, 02:56:04,VALID,1001.54,VALID,0,INVALID,163.777,VALID,0,VALID,23.3532,VALID,1,VALID,0.660547,
2011-05-01, 02:57:04,VALID,1001.55,VALID,0,INVALID,163.807,VALID,0,VALID,23.332,VALID,1,VALID,0.569141,
2011-05-01, 02:58:04,VALID,1001.52,VALID,0,INVALID,163.784,VALID,0,VALID,23.332,VALID,1,VALID,0.523828,
2011-05-01, 02:59:04,VALID,1001.51,VALID,0,INVALID,163.815,VALID,0,VALID,23.2931,VALID,1,VALID,0.534766,
2011-05-01, 03:00:04,VALID,1001.53,VALID,0,INVALID,163.784,VALID,0,VALID,23.2931,VALID,1,VALID,0.400781,
2011-05-01, 03:01:04,VALID,1001.5,VALID,0,INVALID,163.784,VALID,0,VALID,23.3125,VALID,1,VALID,0.246875,
2011-05-01, 03:02:04,VALID,1001.52,VALID,0,INVALID,163.807,VALID,0,VALID,23.3532,VALID,1,VALID,0.235156,
2011-05-01, 03:03:04,VALID,1001.51,VALID,0,INVALID,163.784,VALID,0,VALID,23.3709,VALID,1,VALID,0.224609,
2011-05-01, 03:04:04,VALID,1001.55,VALID,0,INVALID,163.807,VALID,0,VALID,23.3921,VALID,1,VALID,0.0855469,
2011-05-01, 03:05:04,VALID,1001.51,VALID,0,INVALID,163.762,VALID,0,VALID,23.3921,VALID,1,VALID,0.300391,
2011-05-01, 03:06:04,VALID,1001.53,VALID,0,INVALID,163.792,VALID,0,VALID,23.3727,VALID,1,VALID,0.336719,
2011-05-01, 03:07:04,VALID,1001.5,VALID,0,INVALID,163.792,VALID,0,VALID,23.3532,VALID,1,VALID,0.362891,
2011-05-01, 03:08:04,VALID,1001.51,VALID,0,INVALID,163.784,VALID,0,VALID,23.2931,VALID,1,VALID,0.514453,
2011-05-01, 03:09:04,VALID,1001.47,VALID,0,INVALID,163.8,VALID,0,VALID,23.2736,VALID,1,VALID,0.485938,
2011-05-01, 03:10:04,VALID,1001.45,VALID,0,INVALID,163.823,VALID,0,VALID,23.2966,VALID,1,VALID,0.505859,
2011-05-01, 03:11:04,VALID,1001.43,VALID,0,INVALID,163.815,VALID,0,VALID,23.2931,VALID,1,VALID,0.432031,
2011-05-01, 03:12:04,VALID,1001.42,VALID,0,INVALID,163.8,VALID,0,VALID,23.3125,VALID,1,VALID,0.419141,
2011-05-01, 03:13:04,VALID,1001.42,VALID,0,INVALID,163.8,VALID,0,VALID,23.3337,VALID,1,VALID,0.564844,
2011-05-01, 03:14:04,VALID,1001.39,VALID,0,INVALID,163.792,VALID,0,VALID,23.3337,VALID,1,VALID,0.538281,
2011-05-01, 03:15:04,VALID,1001.37,VALID,0,INVALID,163.807,VALID,0,VALID,23.2931,VALID,1,VALID,0.485547,
2011-05-01, 03:16:04,VALID,1001.4,VALID,0,INVALID,163.815,VALID,0,VALID,23.2524,VALID,1,VALID,0.439063,
2011-05-01, 03:17:04,VALID,1001.35,VALID,0,INVALID,163.792,VALID,0,VALID,23.2736,VALID,1,VALID,0.246875,
2011-05-01, 03:18:04,VALID,1001.37,VALID,0,INVALID,163.83,VALID,0,VALID,23.2736,VALID,1,VALID,0.0160156,
2011-05-01, 03:19:04,VALID,1001.34,VALID,0,INVALID,163.8,VALID,0,VALID,23.2736,VALID,1,VALID,0.459375,
2011-05-01, 03:20:04,VALID,1001.32,VALID,0,INVALID,163.807,VALID,0,VALID,23.2931,VALID,1,VALID,0.377344,
2011-05-01, 03:21:04,VALID,1001.32,VALID,0,INVALID,163.8,VALID,0,VALID,23.2754,VALID,1,VALID,0.397266,
2011-05-01, 03:22:04,VALID,1001.31,VALID,0,INVALID,163.792,VALID,0,VALID,23.2364,VALID,1,VALID,0.482422,
2011-05-01, 03:23:04,VALID,1001.31,VALID,0,INVALID,163.807,VALID,0,VALID,23.1957,VALID,1,VALID,0.458203,
2011-05-01, 03:24:04,VALID,1001.27,VALID,0,INVALID,163.815,VALID,0,VALID,23.2152,VALID,1,VALID,0.371484,
2011-05-01, 03:25:04,VALID,1001.26,VALID,0,INVALID,163.8,VALID,0,VALID,23.1957,VALID,1,VALID,0.397266,
2011-05-01, 03:26:04,VALID,1001.23,VALID,0,INVALID,163.807,VALID,0,VALID,23.1957,VALID,1,VALID,0.488672,
2011-05-01, 03:27:04,VALID,1001.26,VALID,0,INVALID,163.807,VALID,0,VALID,23.217,VALID,1,VALID,0.576563,
2011-05-01, 03:28:04,VALID,1001.22,VALID,0,INVALID,163.784,VALID,0,VALID,23.1975,VALID,1,VALID,0.544141,
2011-05-01, 03:29:04,VALID,1001.22,VALID,0,INVALID,163.823,VALID,0,VALID,23.1957,VALID,1,VALID,0.510156,
2011-05-01, 03:30:04,VALID,1001.22,VALID,0,INVALID,163.815,VALID,0,VALID,23.1957,VALID,1,VALID,0.691016,
2011-05-01, 03:31:04,VALID,1001.22,VALID,0,INVALID,163.8,VALID,0,VALID,23.2559,VALID,1,VALID,0.444141,
2011-05-01, 03:32:04,VALID,1001.22,VALID,0,INVALID,163.815,VALID,0,VALID,23.2541,VALID,1,VALID,0.379687,
2011-05-01, 03:33:04,VALID,1001.23,VALID,0,INVALID,163.823,VALID,0,VALID,23.2541,VALID,1,VALID,0.39375,
2011-05-01, 03:34:04,VALID,1001.25,VALID,0,INVALID,163.8,VALID,0,VALID,23.2559,VALID,1,VALID,0.411328,
2011-05-01, 03:35:04,VALID,1001.23,VALID,0,INVALID,163.792,VALID,0,VALID,23.2541,VALID,1,VALID,0.207422,
2011-05-01, 03:36:04,VALID,1001.2,VALID,0,INVALID,163.823,VALID,0,VALID,23.2736,VALID,1,VALID,0.298438,
2011-05-01, 03:37:04,VALID,1001.25,VALID,0,INVALID,163.792,VALID,0,VALID,23.2329,VALID,1,VALID,0.368359,
2011-05-01, 03:38:04,VALID,1001.25,VALID,0,INVALID,163.784,VALID,0,VALID,23.2736,VALID,1,VALID,0.274609,
2011-05-01, 03:39:04,VALID,1001.25,VALID,0,INVALID,163.807,VALID,0,VALID,23.3125,VALID,1,VALID,0.183203,